Location: Unspecified
(0.0000°N, 0.0000°E)
Time: 20:26:07
(UTC+00:00)

Transit 2A - Pass Details

Date: 03 June 2019
Orbit: 593 x 966 km, 66.7° (Epoch: 26 June)

Event Time Altitude Azimuth Distance (km) Brightness Sun altitude
Rises 04:07:05 0° 222° (SW) 3,347 - -25.5°
Reaches altitude 10° 04:09:45 10° 233° (SW) 2,472 - -24.9°
Maximum altitude 04:14:38 29° 291° (WNW) 1,591 - -23.8°
Exits shadow 04:15:30 28° 306° (NW) 1,638 7.4 -23.6°
Drops below altitude 10° 04:19:51 10° 349° (N) 2,637 8.9 -22.6°
Sets 04:22:49 0° 0° (N) 3,609 9.8 -21.9°
